Location: Monroe
(41.9160°N, 83.3980°W)
Time: 02:48:30
(UTC-04:00)

ISS - Visible Passes

Search period start: 25 July 2017 00:00
Search period end: 04 August 2017 00:00
Orbit: 400 x 408 km, 51.6° (Epoch: 25 July)

Date Brightness Start Highest point End Pass type
(mag) Time Alt. Az. Time Alt. Az. Time Alt. Az.
25 Jul -0.8 00:18:33 10° NW 00:20:49 17° NNW 00:23:06 10° NNE visible
25 Jul -0.8 01:56:04 10° NNW 01:58:14 16° N 02:00:23 10° NE visible
25 Jul -2.6 03:32:12 10° NW 03:35:20 42° NNE 03:38:27 10° ESE visible
25 Jul -2.7 05:08:58 10° W 05:11:40 24° SW 05:14:21 10° S visible
25 Jul -3.9 21:48:12 10° SW 21:51:27 83° SE 21:54:43 10° ENE visible
25 Jul -1.2 23:25:40 10° WNW 23:28:15 21° NNW 23:30:51 10° NE visible
26 Jul -0.7 01:03:38 10° NW 01:05:37 15° N 01:06:55 12° NNE visible
26 Jul -1.7 22:32:49 10° W 22:35:44 29° NNW 22:38:38 10° NE visible
27 Jul -0.7 00:10:59 10° NW 00:12:58 15° N 00:14:57 10° NE visible
27 Jul -0.6 01:47:46 10° NW 01:48:17 13° NNW 01:48:17 13° NNW visible
27 Jul -2.6 21:40:07 10° WSW 21:43:15 45° NNW 21:46:24 10° NE visible
27 Jul -0.8 23:18:09 10° NW 23:20:20 16° N 23:22:31 10° NNE visible
28 Jul -0.8 00:55:29 10° NNW 00:57:20 17° N 00:57:20 17° N visible
28 Jul -1.1 22:25:14 10° WNW 22:27:43 20° NNW 22:30:11 10° NE visible
29 Jul -0.9 00:03:05 10° NNW 00:05:05 15° N 00:06:27 12° NNE visible
29 Jul -1.5 21:32:19 10° W 21:35:07 26° NNW 21:37:55 10° NE visible
29 Jul -0.8 23:10:27 10° NW 23:12:25 15° N 23:14:22 10° NE visible
30 Jul -0.8 00:47:04 10° NW 00:48:16 17° NNW 00:48:16 17° NNW visible
30 Jul -0.9 22:17:38 10° NW 22:19:44 16° N 22:21:49 10° NNE visible
30 Jul -1.3 23:54:47 10° NNW 23:57:07 18° NNE 23:57:29 18° NNE visible
31 Jul -1.1 21:24:41 10° WNW 21:27:03 18° NNW 21:29:26 10° NNE visible
31 Jul -1.0 23:02:22 10° NNW 23:04:27 16° N 23:06:32 10° NE visible
01 Aug -0.8 00:38:32 10° NW 00:39:19 15° NW 00:39:19 15° NW visible
01 Aug -1.0 22:09:47 10° NW 22:11:44 15° N 22:13:42 10° NE visible
01 Aug -1.6 23:46:15 10° NW 23:48:34 24° N 23:48:34 24° N visible
02 Aug -1.5 22:53:56 10° NW 22:56:23 19° NNE 22:57:50 15° NE visible
03 Aug -0.7 00:30:01 10° NW 00:30:27 13° NW 00:30:27 13° NW visible
03 Aug -1.2 22:01:32 10° NNW 22:03:41 16° N 22:05:51 10° NE visible
03 Aug -2.0 23:37:39 10° NW 23:39:43 31° NNW 23:39:43 31° NNW visible
